Temperature
30 31 31 31 31 32 31 31 30 30 30 29 29 28 28 27 26 26 25 24 23 22 21 21 21 20 20 20 19 19 18 18 18 18 18 17 17 17 17 17 17 17 17 17
29 30 31 31 31 31 31 31 31 31 30 30 29 28 27 27 26 25 24 23 22 21 21 20 20 20 20 19 19 18 18 18 18 17 17 17 17 17 17 17 17 17 17 17
28 29 30 29 31 31 31 31 31 30 29 29 28 28 27 27 26 25 24 23 22 21 20 20 20 19 19 19 18 18 18 18 17 17 17 17 17 16 16 16 16 16 16 16
27 27 26 29 31 31 31 30 31 30 29 28 27 27 26 26 25 24 23 22 21 21 20 19 19 19 18 18 18 18 17 17 17 17 16 16 16 16 16 16 16 16 16 16
26 26 27 29 30 30 29 29 30 29 28 27 26 26 25 24 23 23 22 21 21 20 20 19 18 18 18 18 17 17 17 17 17 16 16 16 16 16 16 16 16 15 15 15
25 25 26 28 29 29 29 27 28 27 27 26 25 25 24 23 22 21 21 20 20 20 19 18 18 18 17 17 17 17 16 16 16 16 16 16 15 15 15 15 15 15 15 15
25 25 26 27 28 28 26 25 26 26 25 24 24 24 22 21 20 20 20 19 19 19 19 18 17 17 17 17 16 16 16 16 16 16 16 15 15 15 15 15 15 15 15 15
25 24 24 26 26 25 24 25 25 24 23 23 22 21 20 20 19 19 19 19 18 18 18 17 17 17 16 16 16 16 16 16 16 15 15 15 15 15 15 15 15 15 15 15
25 24 24 24 24 24 24 23 23 23 22 21 20 20 19 19 19 18 18 18 17 17 17 16 16 16 16 16 15 15 15 15 15 15 15 15 15 15 15 15 14 14 15 15
23 24 24 23 23 23 22 22 22 21 21 20 20 19 19 18 18 18 17 17 17 16 16 16 15 15 15 15 15 15 15 15 15 15 15 14 14 14 14 14 14 14 14 14
22 23 22 22 21 21 21 21 21 20 20 20 19 19 18 18 17 17 17 16 16 16 15 15 15 15 15 15 15 15 15 15 14 14 14 14 14 14 14 14 14 14 14 14
21 21 21 21 20 20 20 20 20 20 19 19 19 18 18 17 16 16 16 16 15 15 15 15 15 15 14 14 14 14 14 14 14 14 14 14 14 14 14 14 14 14 14 14
20 20 19 19 19 19 19 19 19 19 19 18 18 17 17 16 16 16 15 15 15 15 15 14 14 14 14 14 14 14 14 14 14 14 14 14 14 14 14 14 13 13 13 13
18 18 19 18 19 19 19 19 18 18 18 18 17 17 16 16 16 15 15 15 15 15 14 14 14 14 14 14 14 14 14 14 14 14 13 13 13 13 13 13 13 13 13 13
18 18 18 18 18 18 18 18 18 18 17 17 17 16 16 15 15 15 15 14 14 14 14 14 14 14 14 14 14 14 13 13 13 13 13 13 13 13 13 13 13 13 12 12
17 17 17 17 17 17 17 17 17 17 17 16 16 16 15 15 15 14 14 14 14 14 14 14 14 14 13 13 13 13 13 13 13 13 13 13 13 13 13 13 13 13 12 12
16 16 16 16 17 17 17 17 17 17 16 16 16 15 15 14 14 14 14 14 14 14 14 13 13 13 13 13 13 13 13 13 13 13 13 13 13 12 12 13 12 12 12 12
16 16 16 16 16 16 16 16 16 16 16 15 15 15 15 14 14 14 13 13 13 13 13 13 13 13 13 13 13 13 13 13 13 13 13 13 12 12 12 12 12 12 12 11
15 15 15 15 15 15 15 15 15 15 15 15 14 14 14 14 14 13 13 13 13 13 13 13 13 13 12 13 13 12 12 13 13 12 12 12 12 12 12 12 12 11 11 11
15 15 15 15 15 15 15 14 14 14 14 14 14 14 13 13 13 13 13 13 13 13 13 13 12 12 12 12 12 12 12 12 12 12 12 12 12 12 12 11 11 11 11 10
14 14 14 14 14 14 14 14 14 14 14 13 13 13 13 13 13 13 13 12 12 12 12 12 12 12 12 12 12 12 12 12 12 12 12 12 12 11 11 11 11 11 10 10
14 14 14 14 14 14 14 14 13 13 13 13 13 13 13 12 12 12 12 12 12 12 12 12 12 12 12 12 11 12 12 12 12 12 11 11 11 11 11 11 10 10 10 10
13 13 13 13 13 13 13 13 13 13 13 13 13 12 12 12 12 12 12 12 12 12 11 11 11 11 11 11 11 11 11 11 11 11 11 11 11 11 10 10 10 9 9 9
13 13 13 13 13 13 13 13 13 13 12 12 12 12 12 12 12 12 12 12 11 11 11 11 11 11 11 11 11 11 11 11 11 10 10 10 10 10 10 9 9 9 9 9
12 12 13 13 13 13 13 13 13 12 12 12 12 12 12 12 12 12 12 11 11 11 11 11 11 11 11 10 10 10 10 10 10 10 10 10 10 10 9 9 9 9 8 8
12 12 13 12 13 13 13 13 13 12 12 12 12 12 12 12 12 12 11 11 11 11 11 11 11 11 10 10 10 10 10 10 10 10 10 9 9 9 9 9 9 9 8 8
13 13 12 13 13 13 13 13 12 12 12 12 12 12 12 11 11 11 11 11 11 11 11 11 11 11 10 10 10 10 10 10 9 9 9 9 9 9 9 9 8 8 8 8
Wind_Speed
16 15 15 14 14 14 14 13 12 9 6 5 4 5 6 7 7 7 7 6 6 5 4 4 4 3 3 3 3 2 3 3 3 2 2 2 3 3 3 3 4 3 3 4
16 17 17 16 15 14 14 13 13 10 6 2 7 6 5 6 7 7 7 6 6 5 4 3 3 3 3 3 3 2 2 2 2 2 2 2 2 3 3 3 3 3 4 4
15 16 17 17 13 13 12 11 10 8 3 1 5 4 4 5 6 6 5 5 5 4 3 2 2 2 3 2 2 1 1 1 1 1 2 2 3 2 3 3 3 3 3 3
13 15 18 12 10 10 10 9 7 4 1 1 2 2 3 3 4 6 5 4 4 3 3 2 2 3 2 2 2 1 1 1 0 1 1 2 2 2 2 2 3 3 4 4
12 15 16 14 10 8 9 8 4 2 1 0 1 1 3 4 5 5 4 4 3 3 3 3 2 2 1 1 1 0 0 0 0 1 1 2 2 2 2 3 3 4 4 4
12 14 16 9 6 4 6 7 2 3 2 1 2 3 2 4 5 6 4 4 3 2 3 3 2 2 1 0 1 1 1 1 0 1 2 2 2 2 2 3 4 4 3 3
15 16 12 5 6 4 6 1 4 3 2 1 0 1 4 5 5 5 4 3 3 3 3 3 3 2 1 0 1 1 1 1 1 1 2 1 1 1 2 2 3 3 3 3
13 15 9 5 2 2 2 4 4 4 5 4 5 6 6 5 5 4 3 3 3 3 3 3 3 2 1 1 2 1 1 1 1 1 2 1 1 1 1 2 3 3 3 3
6 4 1 4 4 3 3 4 3 3 5 5 5 5 4 4 4 4 4 4 3 2 2 2 2 2 1 1 2 2 1 1 1 1 1 2 1 1 1 2 2 3 3 3
4 1 2 4 3 2 4 4 3 3 3 3 4 4 3 3 3 3 3 2 2 1 1 1 1 1 1 1 2 2 2 1 1 1 1 1 2 2 1 2 2 3 4 4
5 3 2 2 3 3 3 2 1 1 1 2 3 3 2 2 2 2 2 2 1 1 0 1 0 0 1 1 1 2 2 2 2 1 1 1 1 1 1 1 1 1 2 3
4 2 2 2 2 3 2 1 0 0 1 1 2 3 3 2 2 2 1 1 1 1 1 1 1 1 1 1 1 2 2 2 2 2 1 2 1 1 2 1 2 2 1 1
3 3 3 3 3 2 2 2 2 1 1 1 2 3 3 3 3 2 1 1 0 1 1 1 1 1 1 1 1 2 3 3 2 2 2 2 2 2 1 0 1 1 0 1
3 3 3 4 4 3 3 3 2 2 2 2 2 3 3 3 2 1 1 0 1 1 2 2 1 2 1 1 2 3 4 3 3 3 3 2 2 3 2 2 2 2 2 3
4 3 4 4 5 4 3 3 2 1 1 2 3 3 3 3 2 2 1 1 1 2 2 2 2 2 2 2 3 3 4 3 3 4 4 3 3 3 3 3 3 2 1 1
3 3 3 4 4 3 3 3 3 2 1 2 2 2 2 2 2 1 1 1 2 2 2 2 3 3 2 3 3 3 3 5 5 5 4 3 3 3 3 3 3 2 1 1
3 3 4 4 3 3 3 3 3 3 3 3 2 3 3 2 2 1 2 2 2 2 2 3 3 3 3 3 4 4 4 4 6 5 4 2 3 4 4 3 2 2 1 1
2 2 3 4 4 4 4 3 2 2 2 3 3 3 3 3 3 2 3 3 3 3 3 4 3 3 3 3 3 4 4 4 2 2 2 2 3 3 3 3 2 2 1 1
2 2 2 3 3 4 3 3 3 2 1 1 1 2 2 3 3 3 3 3 3 4 3 3 3 3 4 2 3 4 5 4 3 2 2 2 3 3 2 2 1 1 1 1
2 3 3 3 3 2 2 2 2 2 1 2 2 2 3 3 3 3 3 3 3 3 3 2 3 3 3 2 3 5 4 4 3 3 2 2 2 2 1 1 1 0 0 1
2 2 3 3 4 3 3 3 3 2 2 1 2 2 2 2 2 2 3 3 2 2 3 2 2 2 2 3 4 5 5 4 3 3 2 2 2 1 1 1 0 0 1 1
3 3 2 3 3 3 2 2 2 2 1 1 2 2 1 2 2 2 2 2 2 1 2 2 2 2 3 3 4 5 4 3 3 2 2 2 1 1 0 0 0 0 1 1
2 3 3 3 3 3 3 3 2 2 1 2 2 2 3 2 2 3 3 2 2 2 2 2 1 1 1 3 4 4 3 3 3 2 2 1 1 1 1 1 0 1 1 1
3 3 3 3 3 3 3 3 3 2 2 2 3 2 3 3 3 3 3 1 2 2 2 1 2 1 2 2 2 2 2 2 2 2 1 1 1 1 1 1 1 0 1 1
3 4 4 4 4 3 3 3 3 3 3 3 3 2 3 2 3 3 2 1 2 3 2 2 4 4 3 3 3 2 2 2 2 2 1 1 1 0 1 1 1 1 1 1
4 4 4 4 4 4 4 3 2 2 2 2 2 2 2 1 2 1 1 1 1 1 2 1 2 3 2 2 2 2 2 1 1 1 1 1 1 1 0 1 1 1 1 1
5 4 3 3 3 3 3 2 2 2 2 2 2 2 2 2 2 1 1 1 0 1 1 1 1 1 1 1 1 1 1 1 1 1 1 1 1 1 1 2 2 1 1 1
Wind_Direction
269 271 265 262 253 249 251 259 267 268 249 206 167 150 137 141 147 145 136 129 118 111 103 111 121 128 125 118 110 132 153 168 171 191 205 221 228 233 233 232 239 237 245 249
269 269 268 266 256 250 250 254 261 266 257 183 132 139 155 160 158 151 145 142 132 126 123 110 123 129 122 119 117 124 146 158 164 196 211 223 239 240 239 243 247 240 243 252
266 271 274 261 259 257 257 256 263 270 274 118 142 157 161 166 160 151 146 142 138 136 131 118 114 108 117 115 122 131 156 166 165 206 224 237 251 254 250 247 245 249 252 255
265 267 261 263 272 269 265 261 264 269 302 71 129 132 120 153 149 136 137 137 137 147 148 135 125 108 101 128 135 166 186 172 144 237 237 243 253 258 258 256 252 254 255 254
257 260 259 258 264 266 263 259 275 262 177 171 102 151 133 102 93 102 107 109 121 138 148 130 125 116 104 112 132 213 231 215 130 283 264 260 261 262 267 262 256 252 256 254
251 259 261 271 287 283 265 250 338 43 60 102 170 214 154 96 88 79 71 79 86 123 125 118 111 114 128 199 229 258 316 324 318 293 276 267 265 263 266 262 268 269 262 261
247 254 257 305 327 285 247 275 33 35 79 26 178 38 99 102 94 88 73 64 65 67 87 94 104 116 143 282 300 318 335 333 326 294 271 265 294 301 291 286 284 280 274 265
248 253 254 348 335 335 24 43 50 59 88 87 81 87 95 103 101 97 94 75 62 66 72 76 99 118 110 22 2 3 6 4 8 349 312 352 6 331 333 314 301 291 283 286
252 259 51 26 26 38 47 46 51 65 84 96 100 106 104 102 109 106 86 76 68 71 75 77 93 98 69 18 7 354 360 359 2 353 342 349 336 335 337 330 318 312 305 296
283 252 18 18 11 38 54 48 52 76 100 102 117 122 123 118 111 114 110 110 99 91 73 79 105 76 1 345 342 338 328 328 308 309 323 346 326 339 351 357 346 339 335 326
261 269 289 306 359 25 60 79 78 70 95 122 134 134 125 120 112 109 120 126 119 114 160 196 138 335 298 311 311 306 286 285 281 277 281 294 306 338 335 47 52 331 334 330
276 316 296 310 343 333 344 336 1 164 153 159 136 136 133 123 112 96 77 85 136 191 229 225 219 251 299 315 296 290 282 282 282 275 264 245 240 255 50 88 113 84 24 316
330 341 331 307 290 284 277 277 269 250 205 185 157 150 146 144 136 140 150 161 156 258 247 236 240 255 253 284 297 290 279 276 282 285 272 267 267 270 265 254 176 180 202 301
347 329 309 306 293 282 264 251 254 251 218 173 154 146 143 139 137 146 177 211 281 297 276 253 267 290 296 266 265 278 274 266 266 272 278 273 267 263 265 266 261 249 222 220
335 320 292 288 286 274 267 252 239 231 198 188 168 162 154 154 161 164 188 271 276 271 276 297 310 312 316 290 264 263 269 273 271 274 266 259 268 267 264 266 267 261 217 190
310 312 293 283 283 279 269 254 248 242 220 207 170 166 164 161 156 158 207 252 262 268 293 314 304 296 295 287 281 267 258 253 259 264 266 263 270 277 275 267 269 258 221 167
271 282 290 294 289 278 273 273 269 262 246 220 197 183 179 174 190 226 249 258 255 252 264 273 276 280 286 288 283 277 268 251 236 248 260 281 302 297 290 286 291 304 293 150
283 276 281 281 293 297 285 280 275 272 263 254 199 190 194 200 219 238 254 261 259 254 263 270 268 263 269 283 291 287 282 280 268 264 248 241 264 275 289 292 306 319 306 184
349 308 293 283 282 288 287 284 282 277 262 203 222 231 222 230 238 250 264 266 264 270 275 284 273 257 263 274 284 270 276 278 278 276 272 226 235 253 268 285 323 336 353 45
347 344 339 312 291 283 280 287 293 287 264 217 217 235 239 247 253 263 271 271 282 294 311 306 277 275 277 270 272 277 278 279 279 278 281 262 253 258 258 274 296 318 46 54
10 354 342 322 302 286 274 276 276 261 251 240 232 239 251 269 250 238 257 272 291 290 293 301 288 288 287 285 262 271 279 286 284 286 287 288 280 269 243 235 253 150 107 89
353 1 351 328 322 323 326 308 285 271 259 246 245 239 234 242 256 261 251 264 281 275 270 280 296 3 352 313 291 289 294 296 292 293 292 294 294 284 263 88 76 96 84 72
323 327 325 327 325 319 317 315 310 297 287 280 270 258 254 265 272 271 271 256 240 210 242 283 15 58 331 297 299 305 314 327 333 321 310 300 283 251 212 199 168 125 109 99
319 319 315 308 301 305 305 306 301 292 282 270 263 268 270 270 265 261 271 222 176 179 233 173 145 176 269 285 290 294 309 329 330 330 331 320 301 284 176 140 132 144 122 112
293 296 298 297 292 288 285 280 276 268 271 275 277 270 263 271 282 289 292 232 167 195 234 191 193 208 234 274 281 286 292 317 339 348 318 293 317 1 130 130 129 121 102 93
268 273 281 286 289 290 289 284 279 279 281 290 295 298 289 271 265 259 253 222 186 232 266 235 192 206 239 258 262 265 276 272 258 254 294 345 348 330 174 137 128 119 110 105
253 255 257 266 279 290 297 293 289 294 298 294 292 289 293 292 286 283 292 314 332 305 295 275 255 236 248 245 261 291 325 347 359 22 32 51 34 25 37 72 80 74 62 74
Height
1456 1451 1450 1451 1451 1450 1454 1456 1462 1461 1462 1461 1461 1465 1470 1474 1477 1480 1484 1486 1488 1490 1492 1494 1495 1497 1499 1500 1500 1501 1502 1503 1503 1504 1504 1504 1504 1504 1504 1505 1505 1505 1505 1505
1461 1452 1448 1449 1446 1446 1449 1449 1452 1454 1458 1456 1460 1466 1471 1474 1477 1480 1483 1486 1488 1490 1492 1494 1495 1496 1497 1498 1499 1499 1500 1501 1501 1501 1502 1502 1502 1502 1502 1502 1502 1502 1502 1502
1468 1456 1453 1457 1446 1445 1445 1444 1449 1456 1457 1457 1462 1466 1470 1473 1476 1479 1482 1485 1487 1490 1491 1493 1494 1495 1495 1496 1497 1498 1498 1499 1499 1500 1500 1500 1500 1500 1499 1499 1499 1499 1499 1499
1468 1467 1476 1453 1438 1440 1444 1445 1446 1450 1454 1458 1463 1466 1470 1473 1476 1479 1482 1484 1487 1489 1490 1492 1493 1494 1495 1495 1496 1496 1497 1497 1497 1497 1498 1497 1497 1497 1496 1496 1496 1495 1496 1495
1470 1471 1462 1448 1441 1442 1447 1450 1448 1451 1455 1460 1463 1467 1471 1474 1477 1479 1482 1484 1486 1488 1489 1490 1491 1492 1493 1494 1495 1495 1495 1495 1495 1495 1495 1495 1494 1494 1494 1493 1493 1493 1492 1492
1468 1474 1472 1453 1442 1442 1446 1455 1452 1454 1458 1462 1464 1469 1473 1475 1477 1480 1482 1484 1486 1487 1488 1489 1490 1491 1492 1493 1493 1493 1493 1493 1493 1493 1493 1492 1492 1491 1491 1491 1490 1490 1489 1489
1466 1467 1457 1449 1447 1446 1460 1463 1457 1458 1461 1465 1467 1470 1475 1476 1478 1479 1482 1484 1486 1486 1487 1488 1489 1489 1490 1491 1491 1491 1492 1491 1491 1491 1491 1490 1490 1489 1489 1488 1488 1487 1486 1486
1462 1466 1465 1453 1451 1456 1461 1459 1460 1462 1464 1467 1469 1472 1474 1476 1477 1480 1482 1484 1485 1486 1487 1487 1487 1488 1488 1489 1489 1489 1489 1489 1488 1488 1488 1488 1487 1487 1486 1486 1486 1485 1484 1483
1456 1460 1458 1457 1457 1459 1460 1461 1463 1464 1466 1468 1470 1473 1475 1477 1479 1481 1482 1483 1484 1485 1486 1486 1486 1486 1486 1486 1486 1486 1486 1486 1486 1486 1486 1486 1485 1485 1484 1484 1484 1483 1482 1481
1454 1454 1456 1458 1460 1460 1462 1464 1465 1466 1467 1469 1471 1473 1475 1477 1479 1480 1482 1483 1484 1484 1484 1485 1485 1485 1484 1484 1484 1484 1484 1484 1484 1483 1483 1483 1483 1483 1483 1482 1482 1481 1480 1479
1455 1456 1459 1461 1462 1462 1463 1465 1466 1468 1469 1470 1471 1473 1475 1477 1478 1480 1480 1481 1482 1483 1483 1483 1483 1482 1482 1482 1482 1482 1482 1481 1481 1481 1481 1481 1481 1481 1480 1480 1479 1479 1478 1477
1457 1459 1460 1462 1463 1464 1465 1466 1467 1468 1469 1470 1472 1473 1475 1476 1477 1478 1479 1480 1480 1481 1481 1481 1480 1480 1480 1480 1480 1479 1479 1479 1479 1479 1479 1479 1479 1479 1478 1478 1477 1476 1476 1475
1459 1460 1461 1462 1463 1464 1466 1467 1467 1468 1469 1470 1472 1473 1474 1475 1476 1477 1478 1478 1479 1479 1479 1479 1479 1478 1478 1478 1478 1477 1477 1477 1477 1477 1477 1477 1476 1476 1475 1475 1474 1473 1472 1472
1460 1461 1461 1463 1463 1464 1465 1466 1467 1468 1469 1470 1471 1472 1473 1474 1475 1476 1476 1477 1477 1477 1477 1477 1477 1476 1476 1475 1475 1475 1475 1475 1475 1475 1474 1474 1474 1473 1473 1472 1471 1470 1470 1469
1460 1461 1462 1463 1463 1464 1464 1466 1466 1467 1468 1469 1470 1471 1472 1473 1474 1474 1475 1475 1475 1475 1475 1475 1475 1474 1474 1473 1472 1472 1472 1472 1472 1471 1472 1471 1471 1471 1470 1470 1469 1468 1466 1466
1461 1461 1462 1462 1463 1463 1464 1465 1466 1466 1467 1468 1469 1470 1471 1472 1472 1473 1473 1473 1473 1473 1473 1472 1472 1471 1471 1471 1470 1469 1469 1469 1469 1469 1469 1469 1468 1468 1467 1467 1466 1466 1464 1464
1461 1462 1462 1463 1463 1464 1464 1465 1465 1466 1467 1468 1468 1469 1470 1470 1471 1471 1471 1471 1470 1470 1470 1469 1469 1469 1468 1468 1467 1466 1466 1466 1465 1466 1466 1465 1465 1465 1464 1464 1463 1463 1462 1461
1461 1461 1462 1463 1463 1463 1464 1464 1465 1465 1465 1466 1466 1467 1468 1468 1469 1469 1469 1468 1468 1467 1466 1466 1466 1466 1465 1465 1464 1464 1464 1463 1463 1462 1462 1462 1462 1462 1462 1462 1461 1460 1460 1459
1460 1461 1461 1462 1463 1463 1463 1463 1464 1464 1464 1464 1465 1465 1466 1466 1466 1466 1466 1466 1465 1464 1463 1463 1463 1463 1463 1462 1462 1462 1462 1461 1461 1460 1459 1459 1459 1459 1459 1459 1458 1458 1458 1457
1461 1461 1461 1462 1462 1462 1462 1462 1462 1462 1462 1462 1463 1463 1463 1463 1464 1464 1463 1463 1463 1462 1462 1461 1460 1460 1460 1460 1459 1459 1459 1459 1458 1458 1457 1457 1457 1456 1456 1456 1456 1456 1456 1455
1462 1461 1461 1462 1462 1462 1461 1461 1461 1461 1461 1461 1460 1460 1460 1461 1461 1460 1460 1460 1460 1459 1459 1458 1458 1457 1457 1457 1456 1457 1457 1456 1456 1455 1455 1455 1454 1454 1454 1454 1454 1454 1454 1454
1462 1462 1462 1462 1461 1461 1460 1460 1460 1459 1459 1459 1459 1459 1458 1458 1458 1458 1458 1457 1457 1456 1456 1456 1456 1455 1455 1455 1455 1455 1454 1454 1454 1453 1453 1452 1452 1452 1452 1452 1452 1452 1452 1452
1462 1462 1462 1461 1461 1460 1460 1459 1458 1458 1458 1457 1458 1457 1457 1456 1456 1456 1456 1455 1454 1454 1454 1454 1453 1453 1453 1453 1453 1452 1452 1452 1451 1451 1450 1450 1449 1450 1450 1450 1450 1450 1450 1450
1462 1462 1461 1461 1460 1459 1459 1458 1457 1457 1456 1456 1456 1455 1455 1455 1455 1454 1454 1453 1452 1451 1451 1451 1451 1451 1451 1451 1451 1450 1450 1450 1450 1449 1448 1447 1447 1448 1448 1448 1448 1448 1448 1448
1461 1461 1460 1460 1459 1458 1458 1457 1457 1456 1456 1455 1454 1454 1454 1453 1453 1453 1452 1451 1450 1450 1450 1449 1449 1449 1449 1449 1449 1449 1449 1448 1448 1447 1447 1446 1446 1446 1447 1447 1447 1448 1448 1447
1460 1459 1459 1458 1458 1457 1456 1456 1455 1455 1454 1454 1453 1453 1452 1452 1451 1450 1450 1449 1449 1448 1448 1448 1448 1447 1447 1447 1447 1447 1447 1446 1446 1445 1445 1445 1446 1446 1446 1446 1446 1446 1447 1447
1458 1457 1457 1457 1456 1455 1455 1454 1454 1453 1452 1452 1452 1451 1451 1450 1449 1448 1448 1448 1447 1447 1447 1447 1447 1446 1446 1446 1445 1445 1445 1445 1444 1444 1444 1444 1445 1445 1445 1445 1445 1445 1446 1446